Location: Sungai Bunut
(2.6333°N, 113.7333°E)
Time: 10:54:41
(UTC+00:00)

Cosmos 372 Rocket - Pass Details

Date: 16 October 2021
Orbit: 738 x 768 km, 74.1° (Epoch: 28 November)

Event Time Altitude Azimuth Distance (km) Brightness Sun altitude
Exits shadow 20:32:10 25° 356° (N) 1,463 5.3 -24.7°
Maximum altitude 20:35:09 75° 78° (ENE) 780 4.0 -23.9°
Drops below altitude 10° 20:40:19 10° 163° (SSE) 2,284 6.8 -22.7°
Sets 20:42:42 0° 164° (SSE) 3,216 7.5 -22.1°
